[[{"header":{"parameterUnit":"m.s-1","parameterCategory":1,"la1":30.2991,"la2":30.254,"lo1":-89.0895,"lo2":-89.0444,"dy":0.0017,"dx":0.0017,"nx":28,"ny":28,"refTime":"2024-07-11T21:00:00:Z","depth":0,"parameterNumber":2,"parameterNumberName":"U-component_of_WINDS"},"data":[0,0,0,0,0,0,0,0,0,0,0,0,0,0,0,0,0,0,0,0,0,0,0,0,0,0,0,0,0,0,0,0,0,0,0,0,0,0,0,0,0,0,0,0,0,0,0,0,0,0,0,0,0,0,0,0,0,0,0.2196,0.2196,0,0.2257,0.2258,0.2259,0.2324,0.2325,0.2326,0.2327,0.2391,0.2392,0.2393,0,0,0,0,0,0,0,0,0,0,0,0,0,0.2137,0.2138,0.2196,0.2196,0.2197,0.2257,0.2258,0.2259,0.2324,0.2325,0.2326,0.2328,0.2391,0.2392,0.2393,0,0,0,0,0,0,0,0,0,0,0,0,0,0.2177,0.2138,0.2196,0.2237,0.2241,0.2257,0.2258,0.2259,0.2324,0.2325,0.2327,0.2328,0.2391,0.2392,0.2393,0.2373,0,0,0.2397,0.2398,0,0,0,0,0,0,0,0,0.2174,0.2179,0.223,0.2234,0.2239,0.2285,0.2261,0.2297,0.2324,0.2293,0.2327,0.2329,0.2355,0.2359,0.2368,0.2376,0.2379,0.2397,0.2398,0.2398,0.2399,0,0,0,0,0,0,0,0.2172,0.2177,0.222,0.2231,0.2236,0.2253,0.226,0.2268,0.2315,0.2295,0.23,0.2307,0.2357,0.2366,0.237,0.238,0.2397,0.2398,0.2399,0.24,0.2377,0.2376,0,0,0,0,0,0,0.2162,0.2174,0.2218,0.2222,0.2209,0.2253,0.2261,0.2269,0.2315,0.2324,0.2305,0.2309,0.2363,0.2368,0.2372,0.2353,0.2398,0.24,0.24,0.2378,0.2377,0.2375,0,0,0,0,0,0,0.2161,0.2166,0.2216,0.2199,0.2207,0.2253,0.226,0.2269,0.2278,0.2323,0.2332,0.2306,0.2365,0.237,0.2373,0.2356,0.24,0.2401,0.238,0.2378,0.2376,0.2313,0,0,0,0,0,0,0.2159,0.2165,0.2157,0.2199,0.2207,0.2214,0.2259,0.2269,0.228,0.2286,0.2325,0.2333,0.2366,0.237,0.2374,0.2358,0.2402,0.2382,0.2379,0.2377,0.2317,0.2309,0.2302,0,0,0,0,0,0.2156,0.2137,0.2156,0.2161,0.2199,0.2213,0.2218,0.2256,0.2278,0.2271,0.23,0.2332,0.2357,0.237,0.2375,0.2359,0.2383,0.238,0.2377,0.232,0.2311,0.2303,0,0,0,0,0,0,0.2092,0.2143,0.2165,0.2158,0.2181,0.2224,0.2217,0.2245,0.2262,0.2267,0.2314,0.2322,0.232,0.234,0.2353,0.2343,0.2375,0.2372,0.233,0.2321,0.2314,0.2309,0.2403,0,0,0,0,0,0.2077,0.2084,0.2128,0.2118,0.2128,0.217,0.2178,0.2205,0.2231,0.2241,0.227,0.2294,0.2308,0.2316,0.2331,0.232,0.233,0.2312,0.2305,0.2299,0.2296,0.2293,0.2286,0.2365,0.2365,0.2365,0,0,0.2046,0.2075,0.2076,0.2106,0.2126,0.2133,0.2178,0.2183,0.2189,0.2242,0.2246,0.2268,0.2299,0.2295,0.2294,0.2311,0.2276,0.2295,0.2289,0.229,0.2289,0.2282,0.2275,0.2363,0.2363,0.2364,0,0,0.1993,0.2015,0.2009,0.2029,0.206,0.2089,0.2087,0.2127,0.2144,0.2148,0.2189,0.2197,0.2219,0.2239,0.2252,0.2208,0.2238,0.2211,0.2174,0.2171,0.2164,0.2159,0.2144,0.2138,0.2209,0.2209,0.2209,0,0.195,0.1962,0.2003,0.2006,0.2018,0.2066,0.2061,0.2079,0.2113,0.2121,0.214,0.2169,0.2193,0.2195,0.2184,0.2193,0.2193,0.2207,0.2162,0.2157,0.2153,0.2139,0.2133,0.2205,0.2206,0.2206,0.2206,0,0.1909,0.1916,0.1908,0.194,0.1951,0.195,0.1991,0.1998,0.2025,0.2051,0.2056,0.2087,0.2109,0.2112,0.2137,0.2118,0.2127,0.2153,0.2186,0.2141,0.2129,0.2124,0.22,0.2202,0.2203,0.2203,0,0,0.1816,0.1871,0.1868,0.1883,0.1921,0.1928,0.193,0.1952,0.1957,0.1979,0.1982,0.2,0.2025,0.204,0.2069,0.2066,0.203,0.2092,0.2094,0.208,0.2011,0.1991,0.1984,0.205,0.2049,0.2049,0.2009,0,0.177,0.1776,0.1813,0.1808,0.1816,0.1862,0.1864,0.1888,0.1913,0.1924,0.1953,0.1965,0.1996,0.2005,0.2004,0.2034,0.2017,0.2038,0.2054,0.2055,0.2045,0.1978,0.1957,0.1918,0.2004,0.2003,0.2003,0,0.1717,0.1736,0.1732,0.1771,0.1776,0.1776,0.18,0.181,0.1838,0.1857,0.1874,0.1907,0.1912,0.1943,0.1952,0.1965,0.1974,0.199,0.199,0.1993,0.2026,0.198,0.1906,0.19,0.1996,0.1996,0.1997,0,0.1651,0.1675,0.1676,0.1688,0.1734,0.1733,0.1752,0.1783,0.1794,0.1814,0.1822,0.1843,0.1855,0.1871,0.1909,0.1928,0.1914,0.1947,0.193,0.1929,0.1925,0.1925,0.1852,0.193,0.1931,0.1931,0.1931,0,0.1596,0.1591,0.1647,0.1648,0.1644,0.1688,0.1684,0.1708,0.1734,0.1741,0.1783,0.1788,0.1838,0.1849,0.1879,0.1883,0.1887,0.1903,0.1911,0.19,0.1898,0.1907,0.191,0.1929,0.1929,0.193,0.193,0,0.1521,0.1558,0.1562,0.1605,0.1616,0.1612,0.1649,0.1652,0.168,0.1688,0.1693,0.1737,0.1753,0.1792,0.1818,0.1839,0.1834,0.1849,0.1824,0.1829,0.181,0.1811,0.1741,0.1734,0.1815,0.1815,0.1814,0,0.1483,0.1481,0.1524,0.1531,0.1549,0.156,0.1571,0.1615,0.1625,0.1658,0.1657,0.1676,0.1694,0.1717,0.1752,0.1773,0.1788,0.1762,0.1792,0.178,0.1789,0.1788,0.1789,0.1756,0.1754,0.1754,0.1753,0,0.1413,0.1432,0.1447,0.1468,0.148,0.1499,0.1521,0.1524,0.1573,0.1583,0.1599,0.1613,0.164,0.1659,0.1685,0.1706,0.1738,0.1743,0.1741,0.1729,0.1715,0.1723,0.1807,0.1745,0.1746,0.1746,0.1747,0.1747,0.1356,0.1357,0.1387,0.1403,0.1423,0.1443,0.1448,0.1476,0.1491,0.1516,0.1541,0.1555,0.1585,0.1624,0.1642,0.1655,0.1671,0.1667,0.1666,0.1664,0.1659,0.1712,0.166,0.166,0.166,0.1661,0.1661,0,0.1289,0.1311,0.1324,0.1353,0.1365,0.1394,0.142,0.1428,0.144,0.1465,0.1482,0.1501,0.152,0.1557,0.1579,0.1582,0.1597,0.1586,0.1587,0.1591,0.1643,0.1644,0.1574,0.1574,0.1574,0.1574,0.1574,0.1574,0.1255,0.1258,0.128,0.1294,0.1317,0.133,0.1343,0.1361,0.1382,0.1401,0.1417,0.1441,0.1471,0.1496,0.1515,0.1525,0.1532,0.1516,0.1532,0.1579,0.1588,0.1595,0.1596,0.1517,0.1517,0.1479,0.1479,0.1478]},{"header":{"parameterUnit":"m.s-1","parameterCategory":1,"la1":30.2991,"la2":30.254,"lo1":-89.0895,"lo2":-89.0444,"dy":0.0017,"dx":0.0017,"nx":28,"ny":28,"refTime":"2024-07-11T21:00:00:Z","depth":0,"parameterNumber":3,"parameterNumberName":"V-component_of_WINDS"},"data":[0,0,0,0,0,0,0,0,0,0,0,0,0,0,0,0,0,0,0,0,0,0,0,0,0,0,0,0,0,0,0,0,0,0,0,0,0,0,0,0,0,0,0,0,0,0,0,0,0,0,0,0,0,0,0,0,0,0,0.2776,0.2776,0,0.2709,0.2708,0.2708,0.2691,0.2691,0.2692,0.2692,0.2621,0.2619,0.2617,0,0,0,0,0,0,0,0,0,0,0,0,0,0.2889,0.2887,0.2776,0.2776,0.2775,0.2709,0.2708,0.2707,0.2691,0.2691,0.2692,0.2693,0.2622,0.2619,0.2617,0,0,0,0,0,0,0,0,0,0,0,0,0,0.2833,0.2886,0.2777,0.2759,0.2756,0.2709,0.2708,0.2707,0.2691,0.2691,0.2692,0.2693,0.2623,0.262,0.2616,0.2582,0,0,0.2606,0.2604,0,0,0,0,0,0,0,0,0.2836,0.2829,0.2762,0.276,0.2757,0.2709,0.2722,0.2665,0.2691,0.2716,0.2692,0.2693,0.265,0.2644,0.263,0.2578,0.2575,0.2606,0.2603,0.2602,0.2601,0,0,0,0,0,0,0,0.284,0.2831,0.275,0.2761,0.2758,0.2754,0.2746,0.2711,0.268,0.2714,0.2712,0.2705,0.2649,0.2634,0.2628,0.2574,0.2606,0.2603,0.26,0.2599,0.2491,0.249,0,0,0,0,0,0,0.2847,0.2835,0.2752,0.2748,0.2799,0.2751,0.2743,0.2724,0.268,0.2674,0.2704,0.2704,0.2639,0.2632,0.2626,0.2582,0.2602,0.2599,0.2597,0.2491,0.249,0.249,0,0,0,0,0,0,0.285,0.284,0.2755,0.2791,0.278,0.2748,0.2727,0.2722,0.2707,0.2673,0.2667,0.2694,0.2639,0.2631,0.2593,0.2579,0.2597,0.2594,0.2492,0.2491,0.249,0.2494,0,0,0,0,0,0,0.2853,0.2841,0.2828,0.2791,0.2778,0.2723,0.2726,0.272,0.2701,0.2701,0.2662,0.2657,0.2639,0.2598,0.259,0.2575,0.2591,0.2493,0.2492,0.249,0.2495,0.2493,0.2492,0,0,0,0,0,0.2857,0.2831,0.2827,0.2817,0.2761,0.2722,0.2715,0.2696,0.27,0.2687,0.2665,0.2658,0.2583,0.2594,0.2585,0.2569,0.2494,0.2492,0.249,0.2496,0.2494,0.2492,0,0,0,0,0,0,0.2867,0.2826,0.2821,0.2783,0.2756,0.272,0.2702,0.2694,0.2665,0.2666,0.2643,0.2635,0.2598,0.258,0.2594,0.2533,0.2538,0.2534,0.2546,0.2544,0.2542,0.2546,0.2588,0,0,0,0,0,0.2865,0.2837,0.2803,0.2773,0.276,0.2733,0.2716,0.2704,0.2675,0.2663,0.2639,0.2611,0.2581,0.2561,0.2532,0.2493,0.2484,0.2477,0.2476,0.2474,0.2471,0.2448,0.2445,0.2483,0.2484,0.2484,0,0,0.2859,0.2834,0.2818,0.2774,0.2752,0.2724,0.2724,0.2694,0.2672,0.2659,0.2621,0.2603,0.257,0.2531,0.2513,0.2515,0.2458,0.2472,0.2471,0.2468,0.2446,0.2442,0.2439,0.2482,0.2482,0.2483,0,0,0.2835,0.2814,0.2786,0.2764,0.2731,0.2714,0.2707,0.2672,0.2659,0.2622,0.261,0.2585,0.2534,0.251,0.2492,0.246,0.2453,0.2451,0.2442,0.242,0.2417,0.2414,0.2402,0.2398,0.2448,0.2448,0.2448,0,0.2833,0.279,0.2772,0.2743,0.2723,0.2711,0.2682,0.2661,0.262,0.2607,0.261,0.2546,0.2523,0.2478,0.2471,0.2457,0.2448,0.2455,0.2419,0.2416,0.2413,0.2401,0.2397,0.2448,0.2448,0.2448,0.2448,0,0.2789,0.2759,0.2741,0.2702,0.2681,0.2652,0.2629,0.2609,0.2599,0.2581,0.2543,0.2516,0.248,0.2469,0.2459,0.2423,0.2425,0.2424,0.2429,0.241,0.2398,0.2394,0.2448,0.2448,0.2448,0.2448,0,0,0.2767,0.272,0.2713,0.2695,0.2658,0.2635,0.2606,0.2572,0.2555,0.2528,0.2502,0.2459,0.2458,0.2437,0.2424,0.2406,0.2381,0.2407,0.2406,0.2402,0.234,0.234,0.2335,0.2377,0.2376,0.2375,0.2342,0,0.2738,0.2685,0.2668,0.2624,0.2596,0.2584,0.2558,0.2533,0.2516,0.2489,0.247,0.244,0.2442,0.2429,0.241,0.2388,0.2368,0.2391,0.2351,0.235,0.2359,0.2329,0.2329,0.2299,0.2337,0.2337,0.2336,0,0.2696,0.2669,0.2622,0.2588,0.2576,0.2553,0.2521,0.2496,0.2467,0.2456,0.2433,0.2422,0.239,0.2398,0.2353,0.2369,0.2352,0.2339,0.2337,0.2332,0.2341,0.2321,0.2289,0.2284,0.2329,0.2329,0.233,0,0.2684,0.2635,0.2601,0.2586,0.2547,0.2531,0.2514,0.2485,0.2466,0.2438,0.2425,0.2393,0.2375,0.2351,0.2331,0.2339,0.2288,0.2294,0.2277,0.2277,0.2265,0.2266,0.2228,0.2256,0.2257,0.2257,0.2257,0,0.2652,0.2624,0.2595,0.2574,0.2541,0.2522,0.2491,0.2473,0.2448,0.2422,0.241,0.2386,0.2362,0.2335,0.232,0.2285,0.2277,0.2266,0.2262,0.2267,0.2268,0.2254,0.2255,0.2255,0.2256,0.2256,0.2256,0,0.2633,0.2613,0.2574,0.254,0.2531,0.2509,0.248,0.2458,0.2441,0.2409,0.24,0.2373,0.2341,0.2319,0.2278,0.2267,0.2229,0.2226,0.2239,0.2236,0.222,0.2221,0.2171,0.2163,0.2198,0.2198,0.2197,0,0.2613,0.2591,0.2555,0.2538,0.2521,0.2492,0.2473,0.2453,0.2433,0.2399,0.2381,0.2348,0.2321,0.227,0.2246,0.2214,0.2209,0.2194,0.2204,0.2209,0.2208,0.2209,0.2206,0.2192,0.2191,0.2191,0.2191,0,0.258,0.2571,0.2544,0.2513,0.249,0.2465,0.2439,0.2426,0.2402,0.238,0.2347,0.2326,0.2284,0.2251,0.2217,0.2198,0.219,0.2188,0.2182,0.2186,0.2194,0.2188,0.2233,0.2189,0.2189,0.2189,0.219,0.219,0.2559,0.2539,0.251,0.248,0.2459,0.2436,0.2414,0.2395,0.2367,0.2332,0.2322,0.2287,0.2259,0.2212,0.2194,0.2166,0.2167,0.2159,0.2157,0.2155,0.2154,0.22,0.216,0.216,0.216,0.216,0.216,0,0.2524,0.2506,0.2479,0.2443,0.242,0.2416,0.2387,0.2367,0.2337,0.2312,0.2285,0.2247,0.2215,0.219,0.2157,0.214,0.2135,0.2131,0.2132,0.2127,0.2155,0.2163,0.2136,0.2136,0.2136,0.2136,0.2136,0.2136,0.2504,0.2469,0.2457,0.2411,0.2393,0.2359,0.2344,0.2322,0.2301,0.2259,0.2233,0.2217,0.2191,0.2156,0.2127,0.212,0.2108,0.2105,0.2097,0.2123,0.2126,0.2128,0.2135,0.2103,0.2103,0.2071,0.2071,0.2071]}]]